Tracking 25710 objects as of 4-Jul-2022
HD Live streaming from Space Station
objects crossing your sky now

STARLINK-1659

Track STARLINK-1659 now!
10-day predictions
STARLINK-1659 is classified as:


NORAD ID: 46534
Int'l Code: 2020-070C
Perigee: 553.1 km
Apogee: 555.7 km
Inclination: 53.1 °
Period: 95.6 minutes
Semi major axis: 6925 km
RCS: Unknown
Launch date: October 6, 2020
Source: United States (US)
Launch site: AIR FORCE EASTERN TEST RANGE (AFETR)
aabbcc
Your satellite tracking list
Your tracking list is empty




NASA's NSSDC Master Catalog

Two Line Element Set (TLE):
1 46534U 20070C   22185.22265779 -.00001709  00000-0 -95909-4 0  9994
2 46534  53.0548  92.1717 0001895  65.0547 295.0639 15.06387656 96866
Source of the keplerian elements: AFSPC